Погода в Тельмане

Россия / Республика Северная Осетия — Алания     43°48′17″N   44°19′54″E
темп.,
°C
ветер,
м/с
пор.,
м/с
влажн.,
%
обл.,
%
осадки,
мм/ч
давл.,
гПа
погр.,
м
8 августа, пн
пн800:00+20з2287100 0.1 101163
03:00+20з2287100 0.1 101248
06:00+20св1271100 0.0 101382
09:00+22юв3753100 0.0 1014329
12:00+28вюв47375 0.0 10141666
15:00+29вюв66334 0.0 10142076
18:00+27вюв54360 0.0 10141571
21:00+21юв22590 0.0 101518
9 августа, вт
вт900:00+19ююз22670 0.0 101411
03:00+17юз11820 0.0 101411
06:00+18ююз11760 0.0 101627
09:00+27в34430 0.0 1015901
12:00+32в56250 0.0 10132557
15:00+33в66230 0.0 10122946
18:00+31всв78249 0.0 10121766
21:00+24в48370 0.0 1013128
10 августа, ср
ср1000:00+20в11490 0.0 101211
03:00+18в23570 0.0 101224
06:00+18в39640 0.0 1012230
09:00+28в710300 0.0 10111314
12:00+34в78230 0.0 10092306
15:00+36в88190 0.0 10072848
18:00+32в99250 0.0 10071492
21:00+25в6134273 0.0 1009511
11 августа, чт
чт1100:00+21в386033 0.0 1008210
03:00+19всв22740 0.0 100818
06:00+20зюз117255 0.0 100849
09:00+27с114810 0.0 1008754
12:00+33в32325 0.0 10061412
15:00+37в32250 0.0 10052191
18:00+36в33250 0.0 10062174
21:00+27в611510 0.0 1008406
12 августа, пт
пт1200:00+23всв23696 0.1 100941
03:00+21св11770 0.1 101012
06:00+22з11760 0.0 101167
09:00+29в22540 0.0 1011862
12:00+35всв34330 0.0 10091670
15:00+38в44230 0.0 10072726
18:00+34в1012230 0.1 10091017
21:00+27в713334 0.4 1011560